Regional Weather Roundup
Issued by NWS

Home | Current Version | Previous Version | Graphics & Text | Print | Product List | Glossary On
Versions: 1 2 3 4 5 6 7 8 9 10 11 12 13 14 15 16 17 18 19 20 21 22 23 24 25 26 27
000
ASUS45 KSLC 020210
RWRUT

UTAH REGIONAL WEATHER ROUNDUP
NATIONAL WEATHER SERVICE SALT LAKE CITY UT
800 PM MDT SUN MAY 01 2016

UTZ001>011-023>025-020300-

NORTHERN UTAH

CITY           SKY/WX    TMP DP  RH WIND       PRES   REMARKS
BRIGHAM CITY   PTCLDY    56  21  25 E13G26    30.08S
HILL AFB       MOCLDY    52  25  34 E20G28    30.06S
LOGAN          PTCLDY    56  24  29 E14G23    30.10R
OGDEN          MOCLDY    54  25  32 NE16      30.05S
PROVO AIRPORT  PTCLDY    57  34  41 VRB5      30.03R
SALT LAKE CITY MOCLDY    60  25  26 E10       30.02S
VERNAL         CLEAR     50  24  36 N12G21    30.11R
WENDOVER       PTCLDY    55  28  35 NE10      30.08S
HEBER CITY     MOCLDY    50  28  43 CALM      30.07R

$$

UTZ012>022-026-027-020300-

SOUTHERN/CENTRAL UTAH

CITY           SKY/WX    TMP DP  RH WIND       PRES   REMARKS
BLANDING       CLOUDY    43  40  91 N9        30.18S
BRYCE CANYON   CLOUDY    41  35  79 SW3       30.11R
CEDAR CITY     CLOUDY    49  37  63 E13       30.05R
DELTA          PTCLDY    55  28  35 NE3       30.02S
HANKSVILLE     CLOUDY    59  30  33 CALM      30.07R
MILFORD        CLOUDY    57  35  43 E7        30.02R
MOAB/CYNLANDS  CLOUDY    57  36  45 S10       30.03R
PRICE          CLOUDY    52  24  33 E13       30.08S
ST GEORGE      CLOUDY    66  41  39 NE8       29.97R
KANAB          PTCLDY    54  39  58 E6        30.09R

$$

REGIONAL REPORTS     COLORADO/ARIZONA

CITY           SKY/WX    TMP DP  RH WIND       PRES   REMARKS
CRAIG, CO      CLEAR     50  27  40 E10       30.06R
GRAND JUNCTION CLOUDY    54  35  48 SE15      30.06R
RIFLE          LGT RAIN  49  38  65 SE15      30.07R
MONTROSE       CLOUDY    48  34  58 CALM      30.12R
CORTEZ         LGT RAIN  43  36  76 SE6G17    30.12R
PAGE, AZ       PTCLDY    55  37  50 E5        30.05R
GRAND CANYON   CLOUDY    47  35  63 E9        30.08R
KINGMAN        PTCLDY    65  32  29 E9        29.97R
FLAGSTAFF      MOCLDY    42  40  92 SE3       30.09R

$$

REGIONAL REPORTS    NEVADA/IDAHO/WYOMING

CITY           SKY/WX    TMP DP  RH WIND       PRES   REMARKS
LAS VEGAS, NV  PTCLDY    73  34  23 CALM      29.87S
ELY            MOCLDY    49  31  49 N10       30.08R
ELKO           MOCLDY    55  30  38 NE12      30.06R
POCATELLO, ID  PTCLDY    61  32  33 E3        30.08R
BURLEY         CLEAR     59  31  34 SE6       30.06S
EVANSTON, WY   CLOUDY    41  22  46 E16G28    30.16R
ROCK SPRINGS   CLEAR     40  24  53 NE23G31   30.19R WCI  30
KEMMERER         N/A     37  21  52 E17G24    30.21R WCI  28

$$




USA.gov is the U.S. government's official web portal to all federal, state and local government web resources and services.